Flag for Kazakhstan Weather past 2 weeks in Qyzylorda, Kazakhstan

Now
55 °F

Overcast.


Feels Like: 54 °F
Forecast: 54 / 76 °F
Wind: 6 mph from Northwest

Location: Kzyl-Orda

Current Time: Sep 18, 2014 at 4:11:49 AM

Latest Report: Sep 18, 2014 at 3:00 AM


Visibility: N/A

Pressure: 29.68 "Hg

Humidity: 82%

Dew point: 50 °F

Location of QyzylordaLocation

Historic Weather in Qyzylorda — Graph

°F

Qyzylorda temperature yesterday

Maximum temperature yesterday: 90 °F (at 2:30 PM)
Minimum temperature yesterday: 57 °F (at 6:00 AM)
Average temperature yesterday: 76 °F

Past Weeks' High & Low Weather Summary

 TemperatureHumidityPressure
High90 °F (Sep 17, 2:30 PM)82% (Sep 18, 3:00 AM)30.21 "Hg (Sep 18, 3:00 AM)
Low46 °F (Sep 7, 6:30 AM)9% (Sep 14, 5:00 PM)29.50 "Hg (Sep 17, 11:00 PM)
Average68 °F25%29.96 "Hg
* Reported Sep 3 3:00 AM — Sep 18 3:00 AM, Qyzylorda, Weather by CustomWeather, © 2014

Note: Actual official high and low records may vary slightly from our data, if they occured in-between our weather recording intervals... More about our weather records

Advertising

Qyzylorda weather history for previous 24 hours

 ConditionsComfort  
Time TempWeatherWind HumidityBarometerVisibility
3:00 AM
Sep 18
55 °FOvercast.6 mph82%29.68 "HgN/A
2:00 AM59 °FOvercast.10 mph68%29.65 "HgN/A
1:00 AM63 °FOvercast.20 mph56%29.59 "HgN/A
12:00 AM66 °FOvercast.31 mph40%29.62 "HgN/A
11:00 PM
Sep 17
75 °FOvercast.8 mph34%29.50 "HgN/A
10:00 PM75 °FOvercast.6 mph31%29.53 "HgN/A
9:00 PM82 °FOvercast.8 mph23%29.53 "HgN/A
8:00 PM84 °FOvercast.3 mph20%29.53 "HgN/A
7:30 PM82 °FOvercast.3 mph23%29.56 "HgN/A
7:00 PM86 °FOvercast.3 mph17%29.56 "HgN/A
6:30 PM88 °FOvercast.No wind15%29.56 "HgN/A
6:00 PM88 °FMostly cloudy.1 mph13%29.56 "HgN/A
5:30 PM88 °FMostly cloudy.6 mph15%29.56 "HgN/A
5:00 PM88 °FMostly cloudy.6 mph15%29.59 "HgN/A
4:30 PM90 °FMostly cloudy.8 mph14%29.59 "HgN/A
4:00 PM88 °FMostly cloudy.1 mph13%29.59 "HgN/A
3:30 PM90 °FBroken clouds.3 mph13%29.59 "HgN/A
3:00 PM90 °FSunny.3 mph13%29.62 "Hg10 mi
2:30 PM90 °FSunny.3 mph13%29.62 "Hg10 mi
2:00 PM88 °FPassing clouds.3 mph13%29.62 "HgN/A
1:30 PM86 °FSunny.3 mph15%29.65 "Hg10 mi
1:00 PM86 °FSunny.1 mph19%29.65 "Hg10 mi
12:30 PM82 °FPassing clouds.3 mph20%29.68 "HgN/A
12:00 PM82 °FSunny.1 mph19%29.68 "Hg10 mi
11:30 AM79 °FPassing clouds.3 mph21%29.68 "HgN/A
11:00 AM79 °FPassing clouds.6 mph21%29.68 "HgN/A
10:30 AM75 °FScattered clouds.6 mph25%29.68 "HgN/A
10:00 AM73 °FScattered clouds.6 mph25%29.71 "HgN/A
9:30 AM68 °FScattered clouds.3 mph30%29.68 "HgN/A
9:00 AM64 °FScattered clouds.3 mph34%29.68 "HgN/A
8:30 AM63 °FScattered clouds.6 mph37%29.71 "HgN/A
8:00 AM59 °FSunny.6 mph39%29.71 "Hg10 mi
7:30 AM57 °FSunny.6 mph41%29.71 "Hg10 mi
7:00 AM57 °FClear.3 mph41%29.71 "Hg10 mi
6:00 AM57 °FClear.3 mph44%29.71 "Hg10 mi
5:00 AM59 °FClear.3 mph42%29.71 "Hg10 mi
4:00 AM61 °FClear.3 mph36%29.74 "Hg10 mi
Weather by CustomWeather, © 2014

See weather overviewHow to use our weather pages